This demonstration page uses our WeatherBlox Daily Observations layout. Learn more.

Left ArrowRight Arrow

38.88101, -77.10428

Hourly Observations for November 22, 2018

Temp ( °F °C ) Dew Point ( °F °C ) Humidity (%) Winds ( mph kmh ) Pressure ( in mb ) Visibility ( mi km ) Precip ( " mm )
12:52 am 00:52 Mostly Cloudy 42 5.6 24 -4.4 49 49 NW 13 20 30.29 1026 10 16.0934 0 0
1:52 am 01:52 Mostly Cloudy 41 5 25 -3.9 53 53 NNW 16 26 30.29 1026 10 16.0934 0 0
2:52 am 02:52 Mostly Cloudy 39 3.9 22 -5.6 50 50 NNW 17 28 30.32 1027 10 16.0934 0 0
3:52 am 03:52 Mostly Cloudy 37 2.8 20 -6.7 50 50 N 16 26 30.34 1028 10 16.0934 0 0
4:52 am 04:52 Mostly Cloudy 35 1.7 18 -7.8 50 50 N 18 30 30.38 1029 10 16.0934 0 0
5:52 am 05:52 Partly Cloudy 33 0.6 17 -8.3 52 52 N 15 24 30.41 1030 10 16.0934 0 0
6:52 am 06:52 Mostly Clear 31 -0.6 14 -10 49 49 N 17 28 30.45 1031 10 16.0934 0 0
7:52 am 07:52 Mostly Sunny 32 0 12 -11.1 43 43 N 18 30 30.48 1032 10 16.0934 0 0
8:52 am 08:52 Mostly Sunny 32 0 10 -12.2 40 40 N 16 26 30.51 1033 10 16.0934 0 0
9:52 am 09:52 Mostly Cloudy 34 1.1 12 -11.1 40 40 N 15 24 30.53 1034 10 16.0934 0 0
10:52 am 10:52 Mostly Cloudy 33 0.6 12 -11.1 42 42 N 15 24 30.52 1034 10 16.0934 0 0
11:52 am 11:52 Mostly Cloudy 35 1.7 11 -11.7 37 37 N 13 20 30.5 1033 10 16.0934 0 0
12:52 pm 12:52 Mostly Cloudy 35 1.7 7 -13.9 31 31 N 17 28 30.49 1032 10 16.0934 0 0
1:52 pm 13:52 Mostly Cloudy 34 1.1 7 -13.9 32 32 N 14 22 30.49 1032 10 16.0934 0 0
2:52 pm 14:52 Mostly Cloudy 34 1.1 8 -13.3 34 34 N 9 15 30.5 1033 10 16.0934 0 0
3:52 pm 15:52 Cloudy 33 0.6 9 -12.8 36 36 NNW 13 20 30.52 1033 10 16.0934 0 0
4:52 pm 16:52 Mostly Cloudy 33 0.6 9 -12.8 36 36 N 12 19 30.53 1034 10 16.0934 0 0
5:52 pm 17:52 Mostly Cloudy 31 -0.6 9 -12.8 40 40 N 10 17 30.54 1034 10 16.0934 0 0
6:52 pm 18:52 Mostly Clear 31 -0.6 8 -13.3 38 38 NNE 12 19 30.56 1035 10 16.0934 0 0
7:52 pm 19:52 Mostly Clear 30 -1.1 6 -14.4 36 36 NNE 12 19 30.57 1035 10 16.0934 0 0
8:52 pm 20:52 Mostly Clear 30 -1.1 7 -13.9 38 38 NE 12 19 30.59 1036 10 16.0934 0 0
9:52 pm 21:52 Cloudy 30 -1.1 5 -15 34 34 NE 10 17 30.61 1037 10 16.0934 0 0
10:52 pm 22:52 Cloudy 30 -1.1 4 -15.6 33 33 NE 13 20 30.61 1037 10 16.0934 0 0
11:52 pm 23:52 Cloudy 29 -1.7 3 -16.1 33 33 NE 10 17 30.62 1037 10 16.0934 0 0

Powered by AerisWeather